URMM Weather Reports


time (UTC)temp
C
wind
direction
speed
KPH
gust
KPH
rain 1hr
cm
rain 24hr
cm
rain mn
cm
humidity
%
barometer
mb
20260508160041 20 300 14.5 0.0 0.00 0.00 0.00 56 1018.0
20260508153042 20 300 14.5 0.0 0.00 0.00 0.00 56 1018.0
20260508150041 21 300 17.7 0.0 0.00 0.00 0.00 46 1018.0
20260508140041 21 310 14.5 0.0 0.00 0.00 0.00 43 1018.0
20260508133042 22 310 11.3 0.0 0.00 0.00 0.00 46 1018.0
20260508123043 21 320 11.3 0.0 0.00 0.00 0.00 43 1018.0
20260508120043 20 320 11.3 0.0 0.00 0.00 0.00 49 1018.0
20260508113043 20 320 14.5 0.0 0.00 0.00 0.00 49 1019.0
20260508110042 21 310 17.7 0.0 0.00 0.00 0.00 49 1019.0
20260508103042 20 300 17.7 0.0 0.00 0.00 0.00 52 1019.0
20260508100041 20 270 25.7 0.0 0.00 0.00 0.00 56 1019.0
20260508093043 20 290 20.9 0.0 0.00 0.00 0.00 56 1019.0
20260508090042 18 280 29.0 0.0 0.00 0.00 0.00 59 1019.0
20260508083042 17 280 25.7 0.0 0.00 0.00 0.00 63 1020.0
20260508080041 17 290 25.7 0.0 0.00 0.00 0.00 59 1020.0
20260508073042 16 290 25.7 0.0 0.00 0.00 0.00 67 1020.0
20260508070042 15 280 25.7 0.0 0.00 0.00 0.00 72 1020.0
20260508063042 15 280 20.9 0.0 0.00 0.00 0.00 76 1020.0
20260508060042 15 270 20.9 0.0 0.00 0.00 0.00 76 1020.0
20260508053042 13 270 17.7 0.0 0.00 0.00 0.00 76 1021.0
20260508050043 12 270 17.7 0.0 0.00 0.00 0.00 76 1021.0
20260508043042 11 300 17.7 0.0 0.00 0.00 0.00 81 1021.0
20260508040042 11 310 14.5 0.0 0.00 0.00 0.00 81 1020.0
20260508033042 11 270 20.9 0.0 0.00 0.00 0.00 81 1020.0
20260508030044 10 260 20.9 0.0 0.00 0.00 0.00 81 1020.0
20260508023043 10 280 14.5 0.0 0.00 0.00 0.00 87 1020.0
20260508020042 10 260 17.7 0.0 0.00 0.00 0.00 81 1020.0
20260508013046 10 260 17.7 0.0 0.00 0.00 0.00 81 1020.0
20260508003042 10 310 17.7 0.0 0.00 0.00 0.00 87 1020.0
20260508000043 10 310 14.5 0.0 0.00 0.00 0.00 87 1020.0
20260507233042 10 300 14.5 0.0 0.00 0.00 0.00 87 1019.0
20260507230043 10 300 17.7 0.0 0.00 0.00 0.00 87 1019.0
20260507223042 10 300 17.7 0.0 0.00 0.00 0.00 87 1019.0
20260507220043 10 300 14.5 0.0 0.00 0.00 0.00 87 1019.0
20260507213042 10 310 11.3 0.0 0.00 0.00 0.00 87 1019.0
20260507210043 10 290 14.5 0.0 0.00 0.00 0.00 87 1019.0
20260507203043 10 310 11.3 0.0 0.00 0.00 0.00 87 1019.0
20260507200043 10 290 14.5 0.0 0.00 0.00 0.00 87 1019.0
20260507193044 11 300 11.3 0.0 0.00 0.00 0.00 81 1019.0
20260507190044 11 250 11.3 0.0 0.00 0.00 0.00 81 1019.0
20260507180044 13 260 14.5 0.0 0.00 0.00 0.00 76 1019.0
20260507173044 13 250 14.5 0.0 0.00 0.00 0.00 76 1019.0
20260507170044 13 270 11.3 0.0 0.00 0.00 0.00 76 1018.0
20260507163046 15 270 14.5 0.0 0.00 0.00 0.00 72 1018.0